Regional Weather Roundup
Issued by NWS

Home | Current Version | Previous Version | Graphics & Text | Print | Product List | Glossary On
Versions: 1 2 3 4 5 6 7 8 9 10 11 12 13 14 15 16 17 18 19 20 21 22 23 24 25 26 27
000
ASUS45 KBOI 260910
RWRID

IDAHO REGIONAL WEATHER ROUNDUP
NATIONAL WEATHER SERVICE BOISE ID
300 AM MDT WED APR 26 2017

NOTE: "FAIR" INDICATES FEW OR NO CLOUDS BELOW 12000 FEET
WITH NO SIGNIFICANT WEATHER AND/OR OBSTRUCTIONS TO VISIBILITY

IDZ012-014-261000-
SOUTHWEST IDAHO


CITY           SKY/WX    TMP DP  RH WIND       PRES   REMARKS
BOISE          CLOUDY    47  39  74 SE5       29.88F
CALDWELL       LGT RAIN  47  42  83 E7        29.88F
MOUNTAIN HOME  MOCLDY    47  38  72 N12       29.87F
$$

IDZ016-017-261000-
SOUTHCENTRAL IDAHO


CITY           SKY/WX    TMP DP  RH WIND       PRES   REMARKS
BURLEY         CLOUDY    44  32  62 SW8       29.87F
JEROME         CLOUDY    45  33  63 S3        29.88F
TWIN FALLS     CLOUDY    42  35  76 S9        29.88F
$$

IDZ019>023-261000-
SOUTHEAST IDAHO


CITY           SKY/WX    TMP DP  RH WIND       PRES   REMARKS
IDAHO FALLS    PTCLDY    39  31  72 S13       29.83F WCI  31
POCATELLO      CLOUDY    44  30  57 SW12      29.87F
REXBURG        CLOUDY    39  30  70 SW15      29.80F WCI  31
$$

IDZ006-010-011-018-031-032-261000-
CENTRAL IDAHO MOUNTAINS


CITY           SKY/WX    TMP DP  RH WIND       PRES   REMARKS
MCCALL         CLOUDY    38  31  76 S8        29.82F WCI  32
HAILEY         CLOUDY    41  27  56 W6        29.87S
STANLEY          N/A     33  25  72 CALM      29.85F
SALMON         CLOUDY    37  34  87 CALM      29.80F
CHALLIS        CLOUDY    43  22  43 S7        29.82F
$$

IDZ002-004-006-007-026-261000-
NORTHERN IDAHO


CITY           SKY/WX    TMP DP  RH WIND       PRES   REMARKS
LEWISTON       CLOUDY    48  45  89 N3        29.79F
LOWELL           N/A     46  44  93 CALM      29.82F
COEUR D`ALENE  LGT RAIN  42  40  92 S8        29.78F
MULLAN PASS    LGT SNOW  31  30  96 VRB5      29.74F FOG     WCI  26
$$




USA.gov is the U.S. government's official web portal to all federal, state and local government web resources and services.